Weather History for KLVK - November, 2013

Change the Weather History Date:

Friday, November 8, 2013

  Actual Average Record
Temperature  
Mean Temperature 63 °F 56 °F  
Max Temperature 79 °F 68 °F 85 °F (1978)
Min Temperature 46 °F 44 °F 32 °F (1971)
Degree Days  
Heating Degree Days 2 9  
Month to date heating degree days 44 63  
Since 1 July heating degree days 123 191  
Cooling Degree Days 0 0  
Month to date cooling degree days 0 0  
Year to date cooling degree days 1039 829  
Growing Degree Days 12 (Base 50)    
Moisture  
Dew Point 42 °F    
Average Humidity 51    
Maximum Humidity 72    
Minimum Humidity 29    
Precipitation  
Precipitation 0.00 in 0.06 in 1.97 in (2002)
Month to date precipitation 0.00 0.54  
Year to date precipitation 2.59 11.59  
Since 1 July precipitation 0.47 1.69  
Sea Level Pressure  
Sea Level Pressure 30.02 in    
Wind  
Wind Speed 2 mph (West)    
Max Wind Speed 13 mph    
Max Gust Speed 15 mph    
Visibility 10 miles    
Events      
T = Trace of Precipitation, MM = Missing Value Source: NWS Daily Summary

Daily Weather History Graph

Daily Weather History Graph

Search for Another Location

Airport or City:

Trip Planner

Search our weather history database for the weather conditions in past years. The results will help you decide how hot, cold, wet, or windy it might be!

Date:

Astronomy

Nov. 08, 2013 Rise Set
Actual Time 6:40 AM PST 5:01 PM PST
Civil Twilight 6:12 AM PST 5:28 PM PST
Nautical Twilight 5:41 AM PST 6:00 PM PST
Astronomical Twilight 5:10 AM PST 6:31 PM PST
Moon 11:39 AM PST (11/8) 10:28 PM PST (11/8)
Length of Visible Light 11h 16m
Length of Day
10h 21m
Waxing Crescent, 34% of the Moon is Illuminated
Nov 8
Waxing Crescent
Nov 9
First Quarter
Nov 17
Full
Nov 25
Last Quarter
Dec 2
New

Hourly Weather History & Observations

Time (PST) Temp. Dew Point Humidity Pressure Visibility Wind Dir Wind Speed Gust Speed Precip Events Conditions
12:53 AM 51.1 °F 35.1 °F 54% 30.08 in 10.0 mi Calm Calm - N/A   Clear
1:53 AM 50.0 °F 36.0 °F 59% 30.08 in 10.0 mi Calm Calm - N/A   Clear
2:53 AM 48.0 °F 35.1 °F 61% 30.08 in 10.0 mi ENE 3.5 mph - N/A   Clear
3:53 AM 46.9 °F 35.1 °F 63% 30.07 in 10.0 mi East 3.5 mph - N/A   Clear
4:53 AM 48.0 °F 35.1 °F 61% 30.07 in 10.0 mi Calm Calm - N/A   Clear
5:53 AM 46.9 °F 37.9 °F 71% 30.06 in 10.0 mi Calm Calm - N/A   Clear
6:53 AM 46.9 °F 37.0 °F 68% 30.07 in 10.0 mi Calm Calm - N/A   Clear
7:53 AM 51.1 °F 41.0 °F 68% 30.08 in 10.0 mi Calm Calm - N/A   Clear
8:53 AM 55.9 °F 39.0 °F 53% 30.09 in 10.0 mi Calm Calm - N/A   Clear
9:53 AM 63.0 °F 39.9 °F 43% 30.07 in 10.0 mi Calm Calm - N/A   Clear
10:53 AM 66.9 °F 42.1 °F 40% 30.06 in 10.0 mi Calm Calm - N/A   Clear
11:53 AM 73.9 °F 42.1 °F 32% 30.02 in 10.0 mi Calm Calm - N/A   Clear
12:53 PM 75.0 °F 41.0 °F 29% 29.99 in 10.0 mi SW 4.6 mph - N/A   Clear
1:53 PM 75.9 °F 41.0 °F 29% 29.96 in 10.0 mi SSW 3.5 mph - N/A   Clear
2:53 PM 77.0 °F 45.0 °F 32% 29.95 in 10.0 mi West 9.2 mph - N/A   Clear
3:53 PM 73.9 °F 45.0 °F 35% 29.95 in 10.0 mi West 10.4 mph - N/A   Clear
4:53 PM 69.1 °F 45.0 °F 42% 29.95 in 10.0 mi West 8.1 mph - N/A   Clear
5:53 PM 64.9 °F 46.0 °F 50% 29.96 in 10.0 mi Calm Calm - 0.00 in   Clear
6:53 PM 63.0 °F 48.0 °F 58% 29.97 in 10.0 mi NNW 3.5 mph - N/A   Clear
7:53 PM 60.1 °F 48.0 °F 64% 29.97 in 10.0 mi Calm Calm - N/A   Clear
8:53 PM 57.9 °F 46.9 °F 67% 29.98 in 10.0 mi Calm Calm - N/A   Clear
9:53 PM 55.0 °F 46.0 °F 72% 30.00 in 10.0 mi Calm Calm - N/A   Clear
10:53 PM 54.0 °F 45.0 °F 72% 29.99 in 10.0 mi Calm Calm - N/A   Clear
11:53 PM 52.0 °F 44.1 °F 74% 29.99 in 10.0 mi Calm Calm - N/A   Clear